Location: Unspecified
(0.0000°N, 0.0000°E)
Time: 22:08:09
(UTC+00:00)

Hubble Space Telescope - Pass Details

Date: 15 April 2026
Orbit: 474 x 477 km, 28.5° (Epoch: 18 April)

Event Time Altitude Azimuth Distance (km) Brightness Sun altitude
Rises 19:05:24 0° 222° (SW) 2,513 4.7 -16.1°
Reaches altitude 10° 19:07:50 10° 210° (SSW) 1,634 3.5 -16.7°
Enters shadow 19:10:54 27° 155° (SSE) 948 1.7 -17.5°
